Regional Weather Roundup
Issued by NWS

Home | Current Version | Previous Version | Graphics & Text | Print | Product List | Glossary On
Versions: 1 2 3 4 5 6 7 8 9 10 11 12 13 14 15 16 17 18 19 20 21 22 23 24 25 26 27
000
ASUS45 KBOU 301810
RWRCO

WEATHER ROUNDUP FOR COLORADO
NATIONAL WEATHER SERVICE DENVER/BOULDER CO
1200 PM MDT FRI SEP 30 2016

NOTE: "FAIR" INDICATES FEW OR NO CLOUDS BELOW 12000 FEET WITH NO
SIGNIFICANT WEATHER AND/OR OBSTRUCTIONS TO VISIBILITY.

COZ001>005-013-030-031-301900-
...NORTHWEST COLORADO...

CITY           SKY/WX    TMP DP  RH WIND       PRES   REMARKS
CRAIG          PTSUNNY   64  47  53 W7        30.34F
HAYDEN         CLOUDY    57  45  62 NW3       30.36F
MEEKER         PTSUNNY   61  49  64 S3        30.35F
MOUNT WERNER   NOT AVBL
STEAMBOAT SPGS PTSUNNY   56  48  73 CALM      30.37F
WALDEN           N/A     54  45  71 SW8       30.43F
$$

COZ006>008-011-301900-
...WEST CENTRAL VALLEYS...

CITY           SKY/WX    TMP DP  RH WIND       PRES   REMARKS
GRAND JUNCTION PTSUNNY   66  54  65 W5        30.30F
MONTROSE       PTSUNNY   64  50  60 CALM      30.35F
EAGLE          PTSUNNY   61  50  67 CALM      30.38F
RIFLE          FAIR      65  53  65 CALM      30.33F
DELTA          NOT AVBL
NUCLA          CLOUDY    61  52  72 N5        30.40F
$$

COZ017>023-064>068-301900-
...SOUTHWEST COLORADO...

CITY           SKY/WX    TMP DP  RH WIND       PRES   REMARKS
DURANGO        FAIR      63  46  54 SW6       30.37F
CORTEZ         FAIR      65  50  58 SW5       30.34F
PAGOSA SPRINGS FAIR      63  41  44 S7        30.41F
TELLURIDE      FAIR      56  42  60 W7        30.50F
WOLF CREEK PAS CLOUDY    43  37  81 SW13G21   30.64S
$$

COZ009-010-012-014-032>034-037-058>063-301900-
...CENTRAL COLORADO...

CITY           SKY/WX    TMP DP  RH WIND       PRES   REMARKS
ASPEN          PTSUNNY   59  45  59 VRB6      30.41F
BUENA VISTA    FAIR      66  36  33 W6        30.37F
COPPER MTN     CLOUDY    41  37  87 W10       30.62S
BERTHOUD PASS  HAZE      34  23  64 NW20G26   30.62F VSB<1/4 WCI  22
COTTONWOOD PAS FAIR      61  34  36 SW9G20    30.48F
GUNNISON       PTSUNNY   61  43  51 SE6       30.41F
KREMMLING      DRIZZLE   55  43  62 CALM      30.41F
LEADVILLE      PTSUNNY   51  36  56 NW13      30.49F
MONARCH PASS   CLOUDY    41  39  93 W14       30.72R FOG
SALIDA         FAIR      70  38  30 W10G17    30.41F
SUNLIGHT       PTSUNNY   46  45  93 SW5       30.60S
WILKERSON PASS CLOUDY    50  32  50 CALM      30.59S
$$

COZ069>075-301900-
...SAN LUIS VALLEY/SANGRE DE CRISTO MOUNTAINS...

CITY           SKY/WX    TMP DP  RH WIND       PRES   REMARKS
ALAMOSA        FAIR      64  40  41 NW6       30.37F
LA VETA PASS   FAIR      59  39  47 MISG      30.51S
SAGUACHE       FAIR      64  41  42 NW12G18   30.40F
$$

COZ035-036-038>040-301900-
...NORTHERN COLORADO FRONT RANGE...

CITY           SKY/WX    TMP DP  RH WIND       PRES   REMARKS
DENVER INTL AP PTSUNNY   69  44  40 N17       30.25S
DMNS CITY PARK   N/A     68  44  41 NE7       30.25S
AURORA         PTSUNNY   70  45  40 N10       30.26F
FRONT RANGE AP PTSUNNY   70  45  40 N18G26    30.26S
ERIE MUNI ARPT CLOUDY    64  44  48 N3        30.25R
BOULDER MUN AP CLOUDY    64  46  52 NE6       30.25S
CENTENNIAL     PTSUNNY   67  43  41 N8        30.27F
BROOMFIELD     CLOUDY    64  45  48 CALM      30.28S
FORT COLLINS   FAIR      59  48  67 CALM      30.24S
LONGMONT       CLOUDY    65  50  57 CALM      30.26R
$$

COZ041-046-047-076>085-087-088-301900-
...PIKES PEAK/PALMER DIVIDE AND SOUTHERN FOOTHILLS...

CITY           SKY/WX    TMP DP  RH WIND       PRES   REMARKS
COLO. SPRINGS  FAIR      76  40  27 N16G24    30.26F
A. F. ACADEMY  PTSUNNY   72  40  32 N21G28    30.27F
SCHRIEVER AFB  NOT AVBL
ELLICOTT       NOT AVBL
FALCON         FAIR      70  39  32 N17G23    30.31S
FORT CARSON    FAIR      76  41  28 N13G21    30.23S
LIMON          FAIR      72  39  30 VRB6      30.21F
MONUMENT HILL  CLOUDY    63  41  45 N17       30.34S
TRINIDAD       FAIR      77  36  22 NE6       30.22F
$$

COZ042>045-048>051-090-091-301900-
...NORTHEAST COLORADO...

CITY           SKY/WX    TMP DP  RH WIND       PRES   REMARKS
GREELEY ARPT   FAIR      66  46  48 W3        30.23F
AKRON          PTSUNNY   68  42  38 NE8       30.21S
BURLINGTON     FAIR      69  44  40 SE18      30.19F
WRAY           FAIR      68  45  42 SE14      30.20F
STERLING       FAIR      63  45  51 E6        30.19S
HOLYOKE        FAIR      64  45  48 S10       30.21S
FORT MORGAN    FAIR      66  41  39 NE5       30.21F
$$

COZ086-089-092>099-301900-
...SOUTHEAST COLORADO...

CITY           SKY/WX    TMP DP  RH WIND       PRES   REMARKS
PUEBLO         FAIR      74  44  34 S7        30.16F
LA JUNTA       FAIR      68  43  40 E5        30.16F
LAMAR          FAIR      71  45  39 N6        30.14F
SPRINGFIELD      N/A     78  46  32 S17G23    30.16F
$$




USA.gov is the U.S. government's official web portal to all federal, state and local government web resources and services.